sat.trackr.live / text

‹ back to catalog

STARLINK-32390

NORAD 61630 · 2024-191K

PAYLOAD ACTIVE UNKNOWN

§ Identity

Operator
Country
US
Launch date
2024-10-23
Launch site
AFETR
Launch vehicle
Mass (kg)
RCS (m²)

Purposes: comms

External: N2YO · Heavens-Above · Gunter

§ Orbital elements

Epoch: 2026-05-25T04:33:34.671168Z

Period
94.27 min
Inclination
43.0005°
Eccentricity
0.0000860
Mean motion
15.27585781 rev/d
Perigee alt
482.4 km
Apogee alt
483.6 km
Semi-major
6,861.2 km
B*
-3.5463e-5
RAAN
82.6847°
Arg perigee
268.3076°
Mean anomaly
91.7677°
Rev number
8,923

§ Raw data

STARLINK-323901 61630U 24191K   26145.18998462 -.00001238  00000+0 -35463-4 0  99982 61630  43.0005  82.6847 0000860 268.3076  91.7677 15.27585781 89239

JSON: /api/v1/satellites/61630 · /tle

For live sub-satellite position, see the globe view (requires WebGL).

§ Visibility from observer

Set your observer location to see the next 7 days of passes ≥ 10°. The values pass through the URL so the page stays shareable.

No JS? Fill the form by hand. The geolocation button needs JavaScript.